datetime,pool elevation
1982-10-01,4717.2002
1982-10-02,4717.33008
1982-10-03,4717.49023
1982-10-04,4717.56006
1982-10-05,4717.66016
1982-10-06,4717.72998
1982-10-07,4717.77002
1982-10-08,4717.77979
1982-10-09,4717.77979
1982-10-10,4717.79004
1982-10-11,4717.7998
1982-10-12,4717.81006
1982-10-13,4717.8501
1982-10-14,4717.87988
1982-10-15,4717.91992
1982-10-16,4717.9502
1982-10-17,4717.97998
1982-10-18,4717.99023
1982-10-19,4718.0
1982-10-20,4718.00977
1982-10-21,4718.02002
1982-10-22,4718.02979
1982-10-23,4718.0498
1982-10-24,4718.06982
1982-10-25,4718.08008
1982-10-26,4718.08984
1982-10-27,4718.1001
1982-10-28,4718.1001
1982-10-29,4718.10986
1982-10-30,4718.12988
1982-10-31,4718.1499
1982-11-01,4718.16016
1982-11-02,4718.16016
1982-11-03,4718.16016
1982-11-04,4718.16992
1982-11-05,4718.16992
1982-11-06,4718.18018
1982-11-07,4718.18994
1982-11-08,4718.2002
1982-11-09,4718.22021
1982-11-10,4718.24023
1982-11-11,4718.25
1982-11-12,4718.25977
1982-11-13,4718.25977
1982-11-14,4718.27979
1982-11-15,4718.29004
1982-11-16,4718.2998
1982-11-17,4718.33008
1982-11-18,4718.35986
1982-11-19,4718.37012
1982-11-20,4718.37988
1982-11-21,4718.39014
1982-11-22,4718.3999
1982-11-23,4718.41016
1982-11-24,4718.41992
1982-11-25,4718.43018
1982-11-26,4718.4502
1982-11-27,4718.47998
1982-11-28,4718.50977
1982-11-29,4718.52002
1982-11-30,4718.54004
1982-12-01,4718.58008
1982-12-02,4718.6001
1982-12-03,4718.60986
1982-12-04,4718.62012
1982-12-05,4718.62988
1982-12-06,4718.6499
1982-12-07,4718.66016
1982-12-08,4718.66992
1982-12-09,4718.7002
1982-12-10,4718.72998
1982-12-11,4718.75977
1982-12-12,4718.79004
1982-12-13,4718.81006
1982-12-14,4718.83008
1982-12-15,4718.83984
1982-12-16,4718.83984
1982-12-17,4718.85986
1982-12-18,4718.87988
1982-12-19,4718.8999
1982-12-20,4718.91016
1982-12-21,4718.91992
1982-12-22,4718.9502
1982-12-23,4718.97021
1982-12-24,4718.97021
1982-12-25,4718.97021
1982-12-26,4718.97998
1982-12-27,4719.00977
1982-12-28,4719.02002
1982-12-29,4719.02979
1982-12-30,4719.04004
1982-12-31,4719.0498
1983-01-01,4719.06006
1983-01-02,4719.06982
1983-01-03,4719.08008
1983-01-04,4719.1001
1983-01-05,4719.10986
1983-01-06,4719.10986
1983-01-07,4719.12988
1983-01-08,4719.1499
1983-01-09,4719.18994
1983-01-10,4719.2002
1983-01-11,4719.2002
1983-01-12,4719.20996
1983-01-13,4719.22021
1983-01-14,4719.24023
1983-01-15,4719.27002
1983-01-16,4719.2998
1983-01-17,4719.31006
1983-01-18,4719.31982
1983-01-19,4719.31982
1983-01-20,4719.33008
1983-01-21,4719.37988
1983-01-22,4719.43018
1983-01-23,4719.47998
1983-01-24,4719.50977
1983-01-25,4719.52002
1983-01-26,4719.5498
1983-01-27,4719.58008
1983-01-28,4719.58984
1983-01-29,4719.60986
1983-01-30,4719.62988
1983-01-31,4719.68018
1983-02-01,4719.7002
1983-02-02,4719.70996
1983-02-03,4719.72021
1983-02-04,4719.75
1983-02-05,4719.7998
1983-02-06,4719.8501
1983-02-07,4719.87012
1983-02-08,4719.89014
1983-02-09,4719.8999
1983-02-10,4719.91992
1983-02-11,4719.93018
1983-02-12,4719.93994
1983-02-13,4719.95996
1983-02-14,4719.97021
1983-02-15,4719.99023
1983-02-16,4720.00977
1983-02-17,4720.02002
1983-02-18,4720.02979
1983-02-19,4720.02979
1983-02-20,4720.04004
1983-02-21,4720.0498
1983-02-22,4720.06006
1983-02-23,4720.06982
1983-02-24,4720.08984
1983-02-25,4720.1001
1983-02-26,4720.10986
1983-02-27,4720.12988
1983-02-28,4720.14014
1983-03-01,4720.2002
1983-03-02,4720.20996
1983-03-03,4720.20996
1983-03-04,4720.20996
1983-03-05,4720.20996
1983-03-06,4720.20996
1983-03-07,4720.20996
1983-03-08,4720.20996
1983-03-09,4720.25
1983-03-10,4720.29004
1983-03-11,4720.2998
1983-03-12,4720.31006
1983-03-13,4720.33008
1983-03-14,4720.33984
1983-03-15,4720.3999
1983-03-16,4720.49023
1983-03-17,4720.6001
1983-03-18,4720.68994
1983-03-19,4720.77979
1983-03-20,4720.85986
1983-03-21,4720.93018
1983-03-22,4721.0
1983-03-23,4721.06982
1983-03-24,4721.16016
1983-03-25,4721.24023
1983-03-26,4721.31982
1983-03-27,4721.3999
1983-03-28,4721.43994
1983-03-29,4721.54004
1983-03-30,4721.60986
1983-03-31,4721.7002
1983-04-01,4721.83984
1983-04-02,4721.97998
1983-04-03,4722.12988
1983-04-04,4722.3999
1983-04-05,4722.62988
1983-04-06,4722.77979
1983-04-07,4722.93018
1983-04-08,4723.06006
1983-04-09,4723.16992
1983-04-10,4723.27002
1983-04-11,4723.31982
1983-04-12,4723.35986
1983-04-13,4723.41016
1983-04-14,4723.47998
1983-04-15,4723.52979
1983-04-16,4723.58008
1983-04-17,4723.62988
1983-04-18,4723.66992
1983-04-19,4723.68994
1983-04-20,4723.72021
1983-04-21,4723.91992
1983-04-22,4724.16016
1983-04-23,4724.47021
1983-04-24,4724.77979
1983-04-25,4725.02002
1983-04-26,4725.41016
1983-04-27,4725.6499
1983-04-28,4726.3501
1983-04-29,4726.85986
1983-04-30,4727.18994
1983-05-01,4727.7998
1983-05-02,4728.16016
1983-05-03,4728.27979
1983-05-04,4727.75
1983-05-05,4727.12988
1983-05-06,4726.22998
1983-05-07,4725.95996
1983-05-08,4726.43994
1983-05-09,4726.72998
1983-05-10,4727.37988
1983-05-11,4728.00977
1983-05-12,4728.66016
1983-05-13,4727.00977
1983-05-14,4727.5498
1983-05-15,4728.1001
1983-05-16,4728.52002
1983-05-17,4728.8501
1983-05-18,4729.16992
1983-05-19,4729.41992
1983-05-20,4729.68018
1983-05-21,4729.91992
1983-05-22,4730.16016
1983-05-23,4730.3501
1983-05-24,4730.56006
1983-05-25,4730.83008
1983-05-26,4731.22021
1983-05-27,4731.72998
1983-05-28,4732.25977
1983-05-29,4732.54004
1983-05-30,4732.81982
1983-05-31,4733.83984
1983-06-01,4734.66992
1983-06-02,4735.29004
1983-06-03,4735.87012
1983-06-04,4736.41016
1983-06-05,4736.9502
1983-06-06,4737.3999
1983-06-07,4737.87988
1983-06-08,4738.27002
1983-06-09,4738.43018
1983-06-10,4738.29004
1983-06-11,4738.08984
1983-06-12,4737.93994
1983-06-13,4737.72021
1983-06-14,4737.4502
1983-06-15,4737.12012
1983-06-16,4736.89014
1983-06-17,4736.58008
1983-06-18,4736.18994
1983-06-19,4735.68994
1983-06-20,4735.1001
1983-06-21,4735.06006
1983-06-22,4735.29004
1983-06-23,4735.62988
1983-06-24,4735.85986
1983-06-25,4736.1499
1983-06-26,4736.25
1983-06-27,4736.4502
1983-06-28,4736.58984
1983-06-29,4736.43994
1983-06-30,4735.87012
1983-07-01,4735.22021
1983-07-02,4734.56006
1983-07-03,4733.8999
1983-07-04,4733.45996
1983-07-05,4732.7998
1983-07-06,4732.08008
1983-07-07,4731.3501
1983-07-08,4730.47998
1983-07-09,4729.62988
1983-07-10,4728.87988
1983-07-11,4728.08984
1983-07-12,4727.37012
1983-07-13,4726.74023
1983-07-14,4726.12012
1983-07-15,4725.3501
1983-07-16,4724.56006
1983-07-17,4723.77979
1983-07-18,4723.33984
1983-07-19,4722.56006
1983-07-20,4722.22021
1983-07-21,4722.37988
1983-07-22,4722.45996
1983-07-23,4722.52002
1983-07-24,4722.58008
1983-07-25,4722.6499
1983-07-26,4722.68018
1983-07-27,4722.7002
1983-07-28,4722.75977
1983-07-29,4722.8501
1983-07-30,4722.97021
1983-07-31,4723.1001
1983-08-01,4723.2998
1983-08-02,4723.45996
1983-08-03,4723.68018
1983-08-04,4723.91016
1983-08-05,4724.08008
1983-08-06,4724.2002
1983-08-07,4724.31982
1983-08-08,4724.43018
1983-08-09,4724.54004
1983-08-10,4724.62012
1983-08-11,4724.68018
1983-08-12,4724.72021
1983-08-13,4724.75977
1983-08-14,4724.7998
1983-08-15,4724.81982
1983-08-16,4724.83984
1983-08-17,4724.87988
1983-08-18,4724.8999
1983-08-19,4724.91016
1983-08-20,4724.93018
1983-08-21,4724.9502
1983-08-22,4724.39014
1983-08-23,4723.6001
1983-08-24,4722.62988
1983-08-25,4721.47021
1983-08-26,4720.29004
1983-08-27,4718.97021
1983-08-28,4717.6499
1983-08-29,4716.62988
1983-08-30,4715.33984
1983-08-31,4714.12012
1983-09-01,4712.93018
1983-09-02,4711.1001
1983-09-03,4709.62988
1983-09-04,4708.16016
1983-09-05,4706.68994
1983-09-06,4704.97021
1983-09-07,4703.1001
1983-09-08,4701.00977
1983-09-09,4698.75977
1983-09-10,4696.12012
1983-09-11,4693.47998
1983-09-12,4691.72021
1983-09-13,4691.87012
1983-09-14,4692.04004
1983-09-15,4692.64014
1983-09-16,4693.2002
1983-09-17,4693.77002
1983-09-18,4694.33984
1983-09-19,4694.6001
1983-09-20,4694.7002
1983-09-21,4694.75977
1983-09-22,4694.8501
1983-09-23,4694.9502
1983-09-24,4695.04004
1983-09-25,4695.12988
1983-09-26,4695.22998
1983-09-27,4695.3501
1983-09-28,4695.4502
1983-09-29,4695.50977
1983-09-30,4695.62012
1983-10-01,4695.74023
1983-10-02,4695.85986
1983-10-03,4695.95996
1983-10-04,4696.0498
1983-10-05,4696.18018
1983-10-06,4696.31006
1983-10-07,4696.3999
1983-10-08,4696.4502
1983-10-09,4696.52002
1983-10-10,4696.6001
1983-10-11,4696.75977
1983-10-12,4696.85986
1983-10-13,4696.93994
1983-10-14,4697.02002
1983-10-15,4697.08984
1983-10-16,4697.16016
1983-10-17,4696.99023
1983-10-18,4696.66016
1983-10-19,4696.39014
1983-10-20,4696.10986
1983-10-21,4695.70996
1983-10-22,4695.33008
1983-10-23,4694.9502
1983-10-24,4694.8501
1983-10-25,4694.93018
1983-10-26,4695.02979
1983-10-27,4695.14014
1983-10-28,4695.24023
1983-10-29,4695.33008
1983-10-30,4695.41992
1983-10-31,4695.50977
1983-11-01,4695.60986
1983-11-02,4695.7002
1983-11-03,4695.7998
1983-11-04,4695.89014
1983-11-05,4695.93994
1983-11-06,4695.99023
1983-11-07,4696.04004
1983-11-08,4696.12012
1983-11-09,4696.20996
1983-11-10,4696.31006
1983-11-11,4696.37012
1983-11-12,4696.43018
1983-11-13,4696.49023
1983-11-14,4696.54004
1983-11-15,4696.60986
1983-11-16,4696.68018
1983-11-17,4696.75977
1983-11-18,4696.8501
1983-11-19,4696.91016
1983-11-20,4696.97021
1983-11-21,4697.0498
1983-11-22,4697.14014
1983-11-23,4697.2002
1983-11-24,4697.25
1983-11-25,4697.33984
1983-11-26,4697.41016
1983-11-27,4697.47998
1983-11-28,4697.5498
1983-11-29,4697.64014
1983-11-30,4697.70996
1983-12-01,4697.77979
1983-12-02,4697.8501
1983-12-03,4697.93018
1983-12-04,4698.00977
1983-12-05,4698.08008
1983-12-06,4698.12988
1983-12-07,4698.2002
1983-12-08,4698.27002
1983-12-09,4698.33008
1983-12-10,4698.37012
1983-12-11,4698.41016
1983-12-12,4698.4502
1983-12-13,4698.49023
1983-12-14,4698.56006
1983-12-15,4698.6001
1983-12-16,4698.47998
1983-12-17,4698.74023
1983-12-18,4699.0
1983-12-19,4699.12988
1983-12-20,4699.2002
1983-12-21,4699.27002
1983-12-22,4699.33984
1983-12-23,4699.41016
1983-12-24,4699.47998
1983-12-25,4699.5498
1983-12-26,4699.62012
1983-12-27,4699.66992
1983-12-28,4699.70996
1983-12-29,4699.72021
1983-12-30,4699.75
1983-12-31,4699.79004
1984-01-01,4699.83008
1984-01-02,4699.87012
1984-01-03,4699.8999
1984-01-04,4699.91016
1984-01-05,4699.93994
1984-01-06,4700.0
1984-01-07,4700.0498
1984-01-08,4700.1001
1984-01-09,4700.16016
1984-01-10,4700.29004
1984-01-11,4700.37988
1984-01-12,4700.45996
1984-01-13,4700.49023
1984-01-14,4700.52979
1984-01-15,4700.56982
1984-01-16,4700.62012
1984-01-17,4700.74023
1984-01-18,4700.8501
1984-01-19,4700.9502
1984-01-20,4700.99023
1984-01-21,4701.02002
1984-01-22,4701.06006
1984-01-23,4701.10986
1984-01-24,4701.1499
1984-01-25,4701.18018
1984-01-26,4701.2002
1984-01-27,4701.22021
1984-01-28,4701.27002
1984-01-29,4701.2998
1984-01-30,4701.33984
1984-01-31,4701.47998
1984-02-01,4701.62012
1984-02-02,4701.68018
1984-02-03,4701.77979
1984-02-04,4701.83984
1984-02-05,4701.93994
1984-02-06,4701.99023
1984-02-07,4702.1001
1984-02-08,4702.14014
1984-02-09,4702.2002
1984-02-10,4702.24023
1984-02-11,4702.25
1984-02-12,4702.27979
1984-02-13,4702.2998
1984-02-14,4702.31006
1984-02-15,4702.35986
1984-02-16,4702.37012
1984-02-17,4702.37988
1984-02-18,4702.3999
1984-02-19,4702.45996
1984-02-20,4702.50977
1984-02-21,4702.6499
1984-02-22,4702.70996
1984-02-23,4702.72021
1984-02-24,4702.72021
1984-02-25,4702.72021
1984-02-26,4702.72021
1984-02-27,4702.72021
1984-02-28,4702.72021
1984-02-29,4702.74023
1984-03-01,4702.8501
1984-03-02,4702.8999
1984-03-03,4702.8999
1984-03-04,4702.8999
1984-03-05,4702.91016
1984-03-06,4702.93018
1984-03-07,4702.93994
1984-03-08,4703.06006
1984-03-09,4703.1001
1984-03-10,4703.12988
1984-03-11,4703.18018
1984-03-12,4703.2002
1984-03-13,4703.20996
1984-03-14,4703.16016
1984-03-15,4703.1001
1984-03-16,4703.08008
1984-03-17,4703.06006
1984-03-18,4703.04004
1984-03-19,4703.00977
1984-03-20,4703.06006
1984-03-21,4703.08984
1984-03-22,4703.1001
1984-03-23,4703.1001
1984-03-24,4703.1001
1984-03-25,4703.1001
1984-03-26,4703.06982
1984-03-27,4703.16016
1984-03-28,4703.33984
1984-03-29,4703.45996
1984-03-30,4703.49023
1984-03-31,4703.5
1984-04-01,4703.50977
1984-04-02,4703.54004
1984-04-03,4703.6001
1984-04-04,4703.66992
1984-04-05,4703.70996
1984-04-06,4703.72021
1984-04-07,4703.72998
1984-04-08,4703.72998
1984-04-09,4703.75
1984-04-10,4703.77979
1984-04-11,4703.81006
1984-04-12,4703.83984
1984-04-13,4703.97998
1984-04-14,4704.08008
1984-04-15,4704.18018
1984-04-16,4704.25977
1984-04-17,4704.35986
1984-04-18,4704.45996
1984-04-19,4704.5
1984-04-20,4704.62988
1984-04-21,4704.81006
1984-04-22,4704.99023
1984-04-23,4705.1499
1984-04-24,4705.22998
1984-04-25,4705.33008
1984-04-26,4705.62988
1984-04-27,4706.0
1984-04-28,4706.37988
1984-04-29,4706.68994
1984-04-30,4706.77002
1984-05-01,4706.9502
1984-05-02,4707.10986
1984-05-03,4707.20996
1984-05-04,4707.2002
1984-05-05,4707.12988
1984-05-06,4707.04004
1984-05-07,4705.89014
1984-05-08,4703.41992
1984-05-09,4700.41992
1984-05-10,4698.1001
1984-05-11,4693.77002
1984-05-12,4690.41016
1984-05-13,4687.0498
1984-05-14,4685.75
1984-05-15,4680.5
1984-05-16,4677.87988
1984-05-17,4674.0
1984-05-18,4679.27002
1984-05-19,4687.43018
1984-05-20,4695.58984
1984-05-21,4697.56982
1984-05-22,4700.0498
1984-05-23,4701.1499
1984-05-24,4701.7002
1984-05-25,4702.31982
1984-05-26,4702.7998
1984-05-27,4703.27979
1984-05-28,4703.75977
1984-05-29,4704.74023
1984-05-30,4705.60986
1984-05-31,4706.37988
1984-06-01,4706.7998
1984-06-02,4707.25
1984-06-03,4707.6499
1984-06-04,4708.39014
1984-06-05,4708.81006
1984-06-06,4709.22998
1984-06-07,4709.6001
1984-06-08,4710.20996
1984-06-09,4710.8501
1984-06-10,4711.49023
1984-06-11,4711.91016
1984-06-12,4712.0
1984-06-13,4712.02979
1984-06-14,4712.16016
1984-06-15,4712.31982
1984-06-16,4712.5
1984-06-17,4712.7002
1984-06-18,4712.97021
1984-06-19,4713.1001
1984-06-20,4713.16992
1984-06-21,4713.2998
1984-06-22,4713.3501
1984-06-23,4713.37012
1984-06-24,4713.39014
1984-06-25,4713.49023
1984-06-26,4713.58984
1984-06-27,4713.70996
1984-06-28,4713.81006
1984-06-29,4713.87012
1984-06-30,4713.93018
1984-07-01,4713.99023
1984-07-02,4714.3999
1984-07-03,4714.68018
1984-07-04,4714.81982
1984-07-05,4714.91992
1984-07-06,4715.06006
1984-07-07,4715.24023
1984-07-08,4715.41992
1984-07-09,4715.58008
1984-07-10,4715.81982
1984-07-11,4715.8999
1984-07-12,4715.93018
1984-07-13,4715.93994
1984-07-14,4715.93994
1984-07-15,4715.93994
1984-07-16,4715.93994
1984-07-17,4716.0
1984-07-18,4716.10986
1984-07-19,4716.33008
1984-07-20,4716.3999
1984-07-21,4716.39014
1984-07-22,4716.37988
1984-07-23,4716.2998
1984-07-24,4716.31006
1984-07-25,4716.31982
1984-07-26,4715.3999
1984-07-27,4713.62012
1984-07-28,4711.77979
1984-07-29,4709.93994
1984-07-30,4708.1001
1984-07-31,4706.2002
1984-08-01,4703.6499
1984-08-02,4700.91992
1984-08-03,4698.06982
1984-08-04,4695.43018
1984-08-05,4692.8501
1984-08-06,4689.0
1984-08-07,4683.93018
1984-08-08,4675.35986
1984-08-09,4672.81006
1984-08-10,4673.97021
1984-08-11,4674.68994
1984-08-12,4675.41016
1984-08-13,4677.43994
1984-08-14,4678.83008
1984-08-15,4679.56006
1984-08-16,4680.14014
1984-08-17,4680.49023
1984-08-18,4680.72998
1984-08-19,4680.97021
1984-08-20,4681.49023
1984-08-21,4681.75977
1984-08-22,4685.91992
1984-08-23,4690.54004
1984-08-24,4692.93994
1984-08-25,4694.58008
1984-08-26,4696.22021
1984-08-27,4697.35986
1984-08-28,4697.66016
1984-08-29,4697.72021
1984-08-30,4697.91992
1984-08-31,4698.1001
1984-09-01,4698.22021
1984-09-02,4698.33984
1984-09-03,4698.49023
1984-09-04,4698.56006
1984-09-05,4698.62012
1984-09-06,4698.66992
1984-09-07,4698.7002
1984-09-08,4698.74023
1984-09-09,4698.7998
1984-09-10,4698.89014
1984-09-11,4698.8999
1984-09-12,4698.97021
1984-09-13,4699.08984
1984-09-14,4700.54004
1984-09-15,4702.7002
1984-09-16,4704.85986
1984-09-17,4705.58984
1984-09-18,4705.79004
1984-09-19,4705.89014
1984-09-20,4705.93018
1984-09-21,4705.97021
1984-09-22,4706.02002
1984-09-23,4706.06006
1984-09-24,4706.1001
1984-09-25,4706.10986
1984-09-26,4706.12012
1984-09-27,4706.22021
1984-09-28,4706.25
1984-09-29,4706.25
1984-09-30,4706.25
1984-10-01,4706.27979
1984-10-02,4706.39014
1984-10-03,4706.49023
1984-10-04,4706.5498
1984-10-05,4706.62012
1984-10-06,4706.72021
1984-10-07,4706.81982
1984-10-08,4706.91992
1984-10-09,4707.04004
1984-10-10,4707.22998
1984-10-11,4707.25
1984-10-12,4707.2002
1984-10-13,4707.20996
1984-10-14,4707.22021
1984-10-15,4707.2998
1984-10-16,4707.41992
1984-10-17,4707.52002
1984-10-18,4707.56982
1984-10-19,4707.64014
1984-10-20,4707.72021
1984-10-21,4707.7998
1984-10-22,4707.93994
1984-10-23,4708.06006
1984-10-24,4708.12988
1984-10-25,4708.31006
1984-10-26,4708.3999
1984-10-27,4708.5
1984-10-28,4708.62012
1984-10-29,4708.66992
1984-10-30,4708.87012
1984-10-31,4708.9502
1984-11-01,4709.00977
1984-11-02,4709.1001
1984-11-03,4709.18018
1984-11-04,4709.25977
1984-11-05,4709.3501
1984-11-06,4709.41016
1984-11-07,4709.5
1984-11-08,4709.5498
1984-11-09,4709.6001
1984-11-10,4709.60986
1984-11-11,4709.62012
1984-11-12,4709.64014
1984-11-13,4709.72998
1984-11-14,4709.77002
1984-11-15,4709.7998
1984-11-16,4709.83008
1984-11-17,4709.87012
1984-11-18,4709.91992
1984-11-19,4709.93994
1984-11-20,4710.02979
1984-11-21,4710.06006
1984-11-22,4710.06982
1984-11-23,4710.1001
1984-11-24,4710.1499
1984-11-25,4710.2002
1984-11-26,4710.25977
1984-11-27,4710.31006
1984-11-28,4710.3999
1984-11-29,4710.5
1984-11-30,4710.4502
1984-12-01,4710.47998
1984-12-02,4710.5
1984-12-03,4710.52002
1984-12-04,4710.56006
1984-12-05,4710.6001
1984-12-06,4710.6499
1984-12-07,4710.68018
1984-12-08,4710.70996
1984-12-09,4710.75
1984-12-10,4710.79004
1984-12-11,4710.81006
1984-12-12,4710.83984
1984-12-13,4710.85986
1984-12-14,4710.8999
1984-12-15,4710.95996
1984-12-16,4711.0498
1984-12-17,4711.1001
1984-12-18,4711.16016
1984-12-19,4711.18018
1984-12-20,4711.20996
1984-12-21,4711.24023
1984-12-22,4711.27979
1984-12-23,4711.31982
1984-12-24,4711.3501
1984-12-25,4711.37988
1984-12-26,4711.41016
1984-12-27,4711.4502
1984-12-28,4711.54004
1984-12-29,4711.64014
1984-12-30,4711.74023
1984-12-31,4711.93994
1985-01-01,4712.18018
1985-01-02,4712.35986
1985-01-03,4712.43018
1985-01-04,4712.47021
1985-01-05,4712.50977
1985-01-06,4712.5498
1985-01-07,4712.66016
1985-01-08,4712.7998
1985-01-09,4712.85986
1985-01-10,4712.89014
1985-01-11,4712.91016
1985-01-12,4712.91992
1985-01-13,4712.91992
1985-01-14,4712.9502
1985-01-15,4712.97021
1985-01-16,4713.0
1985-01-17,4713.04004
1985-01-18,4713.08008
1985-01-19,4713.10986
1985-01-20,4713.14014
1985-01-21,4713.16016
1985-01-22,4713.16992
1985-01-23,4713.18018
1985-01-24,4713.2002
1985-01-25,4713.22998
1985-01-26,4713.25977
1985-01-27,4713.29004
1985-01-28,4713.31006
1985-01-29,4713.37012
1985-01-30,4713.43994
1985-01-31,4713.45996
1985-02-01,4713.47021
1985-02-02,4713.49023
1985-02-03,4713.5
1985-02-04,4713.52002
1985-02-05,4713.52979
1985-02-06,4713.52979
1985-02-07,4713.54004
1985-02-08,4713.5498
1985-02-09,4713.56006
1985-02-10,4713.56982
1985-02-11,4713.62012
1985-02-12,4713.66016
1985-02-13,4713.66992
1985-02-14,4713.68018
1985-02-15,4713.68018
1985-02-16,4713.68994
1985-02-17,4713.68994
1985-02-18,4713.68994
1985-02-19,4713.70996
1985-02-20,4713.75977
1985-02-21,4713.81006
1985-02-22,4713.8501
1985-02-23,4713.87012
1985-02-24,4713.89014
1985-02-25,4713.89014
1985-02-26,4713.8999
1985-02-27,4713.8999
1985-02-28,4713.9502
1985-03-01,4713.97998
1985-03-02,4713.97998
1985-03-03,4713.97998
1985-03-04,4714.0
1985-03-05,4713.97021
1985-03-06,4713.97021
1985-03-07,4714.04004
1985-03-08,4714.06982
1985-03-09,4714.06982
1985-03-10,4714.06982
1985-03-11,4714.1001
1985-03-12,4714.22021
1985-03-13,4714.45996
1985-03-14,4714.81006
1985-03-15,4715.14014
1985-03-16,4715.54004
1985-03-17,4715.93994
1985-03-18,4716.16016
1985-03-19,4716.66992
1985-03-20,4717.41992
1985-03-21,4717.91992
1985-03-22,4718.18018
1985-03-23,4718.58008
1985-03-24,4718.97998
1985-03-25,4719.4502
1985-03-26,4719.87012
1985-03-27,4720.12988
1985-03-28,4720.47021
1985-03-29,4720.87012
1985-03-30,4721.1499
1985-03-31,4721.43018
1985-04-01,4721.75977
1985-04-02,4721.91992
1985-04-03,4722.2002
1985-04-04,4722.31982
1985-04-05,4722.47998
1985-04-06,4722.7998
1985-04-07,4723.12012
1985-04-08,4723.50977
1985-04-09,4723.91016
1985-04-10,4724.2998
1985-04-11,4724.70996
1985-04-12,4725.12988
1985-04-13,4725.56982
1985-04-14,4726.00977
1985-04-15,4726.43018
1985-04-16,4726.87988
1985-04-17,4727.35986
1985-04-18,4727.83984
1985-04-19,4728.25977
1985-04-20,4728.72021
1985-04-21,4729.18018
1985-04-22,4729.68994
1985-04-23,4729.93018
1985-04-24,4730.20996
1985-04-25,4730.41992
1985-04-26,4730.66992
1985-04-27,4730.99023
1985-04-28,4731.31006
1985-04-29,4731.93018
1985-04-30,4732.68018
1985-05-01,4733.18018
1985-05-02,4733.68018
1985-05-03,4734.37012
1985-05-04,4734.93994
1985-05-05,4735.50977
1985-05-06,4736.27002
1985-05-07,4736.89014
1985-05-08,4737.5
1985-05-09,4738.1001
1985-05-10,4738.72021
1985-05-11,4739.27979
1985-05-12,4739.83984
1985-05-13,4740.41992
1985-05-14,4740.87012
1985-05-15,4741.33008
1985-05-16,4741.60986
1985-05-17,4741.75
1985-05-18,4741.99023
1985-05-19,4742.22998
1985-05-20,4742.52979
1985-05-21,4742.75977
1985-05-22,4743.08008
1985-05-23,4743.37988
1985-05-24,4743.68994
1985-05-25,4743.91016
1985-05-26,4744.12988
1985-05-27,4744.3501
1985-05-28,4744.66016
1985-05-29,4744.95996
1985-05-30,4745.27002
1985-05-31,4745.56982
1985-06-01,4745.87012
1985-06-02,4746.16992
1985-06-03,4746.37988
1985-06-04,4746.22998
1985-06-05,4746.25977
1985-06-06,4746.2002
1985-06-07,4746.12988
1985-06-08,4746.08984
1985-06-09,4746.04004
1985-06-10,4746.02979
1985-06-11,4746.22021
1985-06-12,4746.43018
1985-06-13,4746.4502
1985-06-14,4746.49023
1985-06-15,4746.43994
1985-06-16,4746.37988
1985-06-17,4746.35986
1985-06-18,4746.2998
1985-06-19,4746.08984
1985-06-20,4745.97021
1985-06-21,4746.00977
1985-06-22,4746.12012
1985-06-23,4746.22021
1985-06-24,4746.29004
1985-06-25,4746.31982
1985-06-26,4745.85986
1985-06-27,4745.43994
1985-06-28,4745.72998
1985-06-29,4746.10986
1985-06-30,4746.50977
1985-07-01,4746.58984
1985-07-02,4746.31006
1985-07-03,4746.16016
1985-07-04,4745.95996
1985-07-05,4745.72998
1985-07-06,4745.52002
1985-07-07,4745.31006
1985-07-08,4745.16992
1985-07-09,4745.08008
1985-07-10,4745.10986
1985-07-11,4745.02979
1985-07-12,4745.00977
1985-07-13,4745.02002
1985-07-14,4745.04004
1985-07-15,4745.06006
1985-07-16,4745.08008
1985-07-17,4745.16016
1985-07-18,4745.16992
1985-07-19,4745.16016
1985-07-20,4745.18018
1985-07-21,4745.2002
1985-07-22,4745.25977
1985-07-23,4745.27979
1985-07-24,4745.31006
1985-07-25,4745.35986
1985-07-26,4745.3999
1985-07-27,4745.3999
1985-07-28,4745.3999
1985-07-29,4745.43994
1985-07-30,4745.47021
1985-07-31,4745.5
1985-08-01,4745.50977
1985-08-02,4745.52979
1985-08-03,4745.56006
1985-08-04,4745.58984
1985-08-05,4745.60986
1985-08-06,4745.64014
1985-08-07,4745.66992
1985-08-08,4745.74023
1985-08-09,4745.75
1985-08-10,4745.72021
1985-08-11,4745.70996
1985-08-12,4745.70996
1985-08-13,4745.72998
1985-08-14,4745.70996
1985-08-15,4745.47998
1985-08-16,4745.0498
1985-08-17,4744.58008
1985-08-18,4744.1001
1985-08-19,4743.62988
1985-08-20,4743.16992
1985-08-21,4742.75977
1985-08-22,4742.27002
1985-08-23,4742.04004
1985-08-24,4742.02979
1985-08-25,4742.00977
1985-08-26,4742.00977
1985-08-27,4742.04004
1985-08-28,4742.02002
1985-08-29,4742.00977
1985-08-30,4742.02002
1985-08-31,4742.02979
1985-09-01,4742.02979
1985-09-02,4742.02979
1985-09-03,4742.02979
1985-09-04,4742.02979
1985-09-05,4742.0498
1985-09-06,4742.04004
1985-09-07,4742.02002
1985-09-08,4742.00977
1985-09-09,4741.97998
1985-09-10,4741.9502
1985-09-11,4741.93994
1985-09-12,4741.95996
1985-09-13,4741.97021
1985-09-14,4741.97998
1985-09-15,4741.97998
1985-09-16,4742.18018
1985-09-17,4742.43994
1985-09-18,4742.47998
1985-09-19,4742.64014
1985-09-20,4742.70996
1985-09-21,4742.77979
1985-09-22,4742.81982
1985-09-23,4742.95996
1985-09-24,4743.00977
1985-09-25,4743.00977
1985-09-26,4743.0498
1985-09-27,4743.06006
1985-09-28,4743.0498
1985-09-29,4743.04004
1985-09-30,4743.02002
1985-10-01,4743.02002
1985-10-02,4743.04004
1985-10-03,4743.06982
1985-10-04,4743.06982
1985-10-05,4743.0498
1985-10-06,4743.02979
1985-10-07,4743.02979
1985-10-08,4743.06006
1985-10-09,4743.08008